TimeMST,TemperatureF,Dew PointF,Humidity,Sea Level PressureIn,VisibilityMPH,Wind Direction,Wind SpeedMPH,Gust SpeedMPH,PrecipitationIn,Events,Conditions,WindDirDegrees,DateUTC
12:55 AM,27.0,23.0,85,30.19,10.0,NE,3.5,-,N/A,,Overcast,40,2013-02-24 07:55:00
1:55 AM,26.1,24.1,92,30.22,10.0,Calm,Calm,-,N/A,,Overcast,0,2013-02-24 08:55:00
2:55 AM,26.1,24.1,92,30.22,10.0,Calm,Calm,-,N/A,,Overcast,0,2013-02-24 09:55:00
3:55 AM,26.1,23.0,88,30.22,10.0,Calm,Calm,-,N/A,,Overcast,0,2013-02-24 10:55:00
4:55 AM,23.0,21.0,92,30.23,10.0,Calm,Calm,-,N/A,,Clear,0,2013-02-24 11:55:00
5:55 AM,21.0,18.0,88,30.24,10.0,West,3.5,-,N/A,,Clear,270,2013-02-24 12:55:00
6:55 AM,19.0,17.1,92,30.26,10.0,Calm,Calm,-,N/A,,Clear,0,2013-02-24 13:55:00
7:55 AM,18.0,15.1,88,30.27,10.0,Calm,Calm,-,N/A,,Clear,0,2013-02-24 14:55:00
8:55 AM,21.9,19.0,89,30.29,10.0,Calm,Calm,-,N/A,,Mostly Cloudy,0,2013-02-24 15:55:00
9:55 AM,26.1,23.0,88,30.31,10.0,Calm,Calm,-,N/A,,Overcast,0,2013-02-24 16:55:00
10:55 AM,35.1,24.1,64,30.28,10.0,SSW,8.1,-,N/A,,Overcast,200,2013-02-24 17:55:00
11:55 AM,36.0,21.9,57,30.26,10.0,SW,9.2,-,N/A,,Overcast,220,2013-02-24 18:55:00
12:55 PM,36.0,19.9,52,30.25,10.0,SSW,8.1,-,N/A,,Overcast,210,2013-02-24 19:55:00
1:55 PM,37.0,19.9,50,30.24,10.0,WSW,8.1,-,N/A,,Overcast,250,2013-02-24 20:55:00
2:55 PM,37.0,19.9,50,30.22,10.0,SSW,9.2,-,N/A,,Overcast,210,2013-02-24 21:55:00
3:55 PM,36.0,23.0,59,30.23,10.0,SSW,12.7,18.4,N/A,,Overcast,210,2013-02-24 22:55:00
4:55 PM,34.0,24.1,67,30.24,10.0,SSW,8.1,-,N/A,,Overcast,210,2013-02-24 23:55:00
5:55 PM,34.0,21.9,61,30.23,10.0,SW,6.9,-,N/A,,Overcast,220,2013-02-25 00:55:00
6:55 PM,34.0,21.0,59,30.23,10.0,SSW,5.8,-,N/A,,Overcast,200,2013-02-25 01:55:00
7:55 PM,33.1,21.9,64,30.23,10.0,SW,6.9,-,N/A,,Overcast,230,2013-02-25 02:55:00
8:55 PM,33.1,21.9,64,30.22,10.0,WSW,6.9,-,N/A,,Overcast,240,2013-02-25 03:55:00
9:55 PM,33.1,23.0,66,30.19,10.0,SW,6.9,-,N/A,,Overcast,220,2013-02-25 04:55:00
10:55 PM,32.0,23.0,69,30.17,10.0,SSW,4.6,-,N/A,,Overcast,200,2013-02-25 05:55:00
11:55 PM,32.0,23.0,69,30.15,10.0,SE,3.5,-,N/A,,Overcast,140,2013-02-25 06:55:00